Custer, SD

7:50 AM MST on February 06, 2016 (GMT -0700)
Custer County

Weather History for KCUT - December, 2012

Change the Weather History Date:

Thursday, December 20, 2012

  Actual Average Record
Temperature  
Mean Temperature 20 °F 23 °F  
Max Temperature 36 °F 33 °F 60 °F (1954)
Min Temperature 3 °F 12 °F -25 °F (1951)
Degree Days  
Heating Degree Days 45 42  
Month to date heating degree days 741 829  
Since 1 July heating degree days 2632 3010  
Cooling Degree Days 0 0  
Month to date cooling degree days 0 0  
Year to date cooling degree days 390 177  
Moisture  
Dew Point 0 °F    
Average Humidity 46    
Maximum Humidity 69    
Minimum Humidity 23    
Precipitation  
Precipitation 0.00 in 0.02 in 0.29 in (1949)
Month to date precipitation 0.17 0.24  
Year to date precipitation 12.42 18.81  
Sea Level Pressure  
Sea Level Pressure 30.18 in    
Wind  
Wind Speed 8 mph (West)    
Max Wind Speed 20 mph    
Max Gust Speed 29 mph    
Visibility 10 miles    
Events      
T = Trace of Precipitation, MM = Missing Value Source: NWS Daily Summary

Daily Weather History Graph

Daily Weather History Graph

Search for Another Location

Airport or City:

Trip Planner

Search our weather history database for the weather conditions in past years. The results will help you decide how hot, cold, wet, or windy it might be!

Date:

Astronomy

Dec. 20, 2012 Rise Set
Actual Time 7:24 AM MST 4:20 PM MST
Civil Twilight 6:51 AM MST 4:52 PM MST
Nautical Twilight 6:15 AM MST 5:29 PM MST
Astronomical Twilight 5:40 AM MST 6:04 PM MST
Moon 11:48 AM MST (12/20) 12:03 AM MST (12/20)
Length of Visible Light 10h 01m
Length of Day
8h 55m
First Quarter, 56% of the Moon is Illuminated
Dec 20
First Quarter
Dec 28
Full
Jan 4
Last Quarter
Jan 11
New
Jan 18
First Quarter

Hourly Weather History & Observations

Time (MST) Temp. Windchill Dew Point Humidity Pressure Visibility Wind Dir Wind Speed Gust Speed Precip Events Conditions
12:53 AM 8.1 °F -2.0 °F -2.0 °F 64% 30.18 in 10.0 mi West 5.8 mph - N/A   Clear
1:53 AM 8.1 °F -0.5 °F -2.0 °F 64% 30.19 in 10.0 mi WSW 4.6 mph - N/A   Clear
2:53 AM 8.1 °F -0.5 °F -2.0 °F 64% 30.19 in 10.0 mi West 4.6 mph - N/A   Clear
3:53 AM 10.0 °F 3.6 °F -2.9 °F 56% 30.19 in 10.0 mi West 3.5 mph - N/A   Clear
4:53 AM 9.0 °F - -2.9 °F 59% 30.21 in 10.0 mi Calm Calm - N/A   Clear
5:53 AM 8.1 °F -0.5 °F -5.1 °F 55% 30.23 in 10.0 mi WSW 4.6 mph - N/A   Clear
6:53 AM 12.9 °F - -8.0 °F 39% 30.21 in 10.0 mi Calm Calm - N/A   Clear
7:53 AM 15.1 °F - -7.1 °F 37% 30.22 in 10.0 mi Calm Calm - N/A   Clear
8:53 AM 21.0 °F 12.4 °F -4.0 °F 33% 30.20 in 10.0 mi West 6.9 mph - N/A   Clear
9:53 AM 26.1 °F 14.0 °F -0.0 °F 32% 30.20 in 10.0 mi West 15.0 mph - N/A   Clear
10:53 AM 28.9 °F 16.5 °F 1.0 °F 30% 30.18 in 10.0 mi West 18.4 mph 27.6 mph N/A   Clear
11:53 AM 33.1 °F 23.4 °F 1.0 °F 26% 30.17 in 10.0 mi West 13.8 mph - N/A   Clear
12:53 PM 36.0 °F 27.5 °F 1.0 °F 23% 30.14 in 10.0 mi WNW 12.7 mph - N/A   Clear
1:53 PM 35.1 °F 27.9 °F 1.9 °F 25% 30.14 in 10.0 mi WNW 9.2 mph 18.4 mph N/A   Clear
2:53 PM 34.0 °F 26.6 °F 1.9 °F 26% 30.17 in 10.0 mi West 9.2 mph - N/A   Clear
3:53 PM 30.0 °F 24.1 °F 1.9 °F 30% 30.18 in 10.0 mi West 5.8 mph - N/A   Clear
4:53 PM 27.0 °F 19.5 °F 3.0 °F 36% 30.21 in 10.0 mi West 6.9 mph - N/A   Clear
5:53 PM 28.9 °F 22.8 °F 3.0 °F 33% 30.21 in 10.0 mi Variable 5.8 mph - N/A   Clear
6:53 PM 28.0 °F 18.1 °F 3.0 °F 34% 30.19 in 10.0 mi West 11.5 mph 16.1 mph N/A   Clear
7:53 PM 27.0 °F 18.0 °F 1.9 °F 34% 30.20 in 10.0 mi West 9.2 mph - N/A   Clear
8:53 PM 25.0 °F 20.7 °F 1.0 °F 36% 30.18 in 10.0 mi WSW 3.5 mph - N/A   Clear
9:53 PM 28.0 °F 18.1 °F 3.0 °F 34% 30.16 in 10.0 mi West 11.5 mph - N/A   Clear
10:53 PM 27.0 °F 17.3 °F 1.9 °F 34% 30.15 in 10.0 mi WSW 10.4 mph - N/A   Clear
11:53 PM 27.0 °F 16.7 °F 1.9 °F 34% 30.13 in 10.0 mi West 11.5 mph - N/A   Clear